2020-061J (46280 NORAD) Tracking and Keplerian Element Data

This shows tracking and keplerian element data for the satellite.

Feedback or suggestion? Click here.




ElementValue
Catalog46280
Name2020-061J
Epoch Orbit305
Epoch Day267.49142756
Epoch Year2020
RAAN340.2385
Inclination97.5177
Eccentricity0.0002388
Argument of Perigee280.8278
Mean Anonmoly79.2683
Mean Motion15.0977774
Decay Rate5.16E-06
L11 46280U 20061J 20267.49142756 .00000516 00000-0 35826-4 0 9994
L22 46280 97.5177 340.2385 0002388 280.8278 79.2683 15.09777740 3059

Live tracking and technical data element details for 2020-061J (NORAD 46280). 2020-061J can be tracked NOW for your location showing map with azimuth and elevation plus other details from your city location.

Track the satellite on the map from your city or location and see movement details for azimuth, elevation, latitude, longitude, range, height, and movement on the map or in text.







IsCatalogInMostPopularTable: catalog: 46280, numindb: 1
Update: records affected: 1



GetName: 46280 2020-061J

Hit Count: updated at: Thu, 24 Sep 2020 18:25:27 GMT